Weather History for Athens, TX

Change the Weather History Date:

Wednesday, November 28, 2012

  Actual Average (KTYR) Record (KTYR)
Temperature  
Mean Temperature 46 °F 51 °F  
Max Temperature 63 °F 61 °F 85 °F (1949)
Min Temperature 30 °F 42 °F 18 °F (1912)
Degree Days  
Heating Degree Days 18 14  
Month to date heating degree days 267  
Since 1 July heating degree days 344  
Cooling Degree Days 0 0  
Month to date cooling degree days 14  
Year to date cooling degree days 2407  
Moisture  
Dew Point 33 °F    
Average Humidity 68    
Maximum Humidity 98    
Minimum Humidity 32    
Precipitation  
Precipitation 0.00 in 0.13 in 1.66 in (2001)
Month to date precipitation 3.83  
Year to date precipitation 41.28  
Snow  
Snow - - - ()
Month to date snowfall  
Since 1 July snowfall  
Since 1 September snowfall  
Snow Depth -    
Sea Level Pressure  
Sea Level Pressure 30.36 in    
Wind  
Wind Speed 1 mph ()    
Max Wind Speed 9 mph    
Max Gust Speed -    
Visibility 9.2 miles    
Events      
T = Trace of Precipitation, MM = Missing Value Source: Averaged Metar Reports

Daily Weather History Graph

Daily Weather History Graph

Search for Another Location

Airport:

Trip Planner

Search our weather history database for the weather conditions in past years. The results will help you decide how hot, cold, wet, or windy it might be!

Date:

Astronomy

Nov. 28, 2012 Rise Set
Actual Time 7:04 AM CST 5:18 PM CST
Civil Twilight 6:37 AM CST 5:45 PM CST
Nautical Twilight 6:07 AM CST 6:15 PM CST
Astronomical Twilight 5:37 AM CST 6:44 PM CST
Moon 5:34 PM CST (11/28) 7:02 AM CST (11/28)
Length of Visible Light 11h 07m
Length of Day
10h 14m
Full, 100% of the Moon is Illuminated
Nov 28
Full
Dec 6
Last Quarter
Dec 13
New
Dec 19
First Quarter
Dec 28
Full

Hourly Weather History & Observations

Time (CST) Temp. Windchill Dew Point Humidity Pressure Visibility Wind Dir Wind Speed Gust Speed Precip Events Conditions
12:35 AM 34.9 °F - 33.3 °F 94% 30.36 in 10.0 mi Calm Calm - N/A   Clear
12:55 AM 34.3 °F - 32.5 °F 93% 30.35 in 10.0 mi Calm Calm - N/A   Clear
1:15 AM 34.3 °F - 32.7 °F 94% 30.35 in 7.0 mi Calm Calm - N/A   Clear
1:35 AM 34.3 °F - 32.7 °F 94% 30.35 in 10.0 mi Calm Calm - N/A   Clear
1:55 AM 34.0 °F - 32.9 °F 96% 30.36 in 5.0 mi Calm Calm - N/A   Clear
2:15 AM 33.6 °F - 32.0 °F 94% 30.36 in 10.0 mi Calm Calm - N/A   Clear
2:35 AM 33.8 °F - 32.2 °F 94% 30.37 in 10.0 mi Calm Calm - N/A   Clear
2:55 AM 33.8 °F - 32.0 °F 93% 30.37 in 10.0 mi Calm Calm - N/A   Clear
3:15 AM 32.9 °F - 31.3 °F 94% 30.36 in 10.0 mi Calm Calm - N/A   Clear
3:35 AM 32.5 °F - 31.6 °F 96% 30.36 in 7.0 mi Calm Calm - N/A   Clear
3:55 AM 32.7 °F - 32.2 °F 98% 30.37 in 5.0 mi Calm Calm - N/A   Clear
4:15 AM 33.1 °F - 32.4 °F 97% 30.37 in 5.0 mi Calm Calm - N/A   Clear
4:35 AM 32.5 °F - 31.1 °F 94% 30.37 in 10.0 mi Calm Calm - N/A   Clear
4:55 AM 32.5 °F - 31.3 °F 95% 30.37 in 7.0 mi Calm Calm - N/A   Clear
5:15 AM 32.7 °F - 31.5 °F 95% 30.38 in 10.0 mi Calm Calm - N/A   Clear
5:35 AM 32.0 °F - 30.9 °F 96% 30.38 in 7.0 mi Calm Calm - N/A   Clear
5:55 AM 32.0 °F - 30.7 °F 95% 30.39 in 7.0 mi Calm Calm - N/A   Clear
6:15 AM 31.8 °F - 31.1 °F 97% 30.39 in 7.0 mi Calm Calm - N/A   Clear
6:35 AM 31.6 °F - 30.6 °F 96% 30.40 in 4.0 mi Calm Calm - N/A   Clear
6:55 AM 31.6 °F - 30.7 °F 96% 30.41 in 7.0 mi Calm Calm - N/A   Clear
7:15 AM 30.4 °F - 28.9 °F 94% 30.41 in 7.0 mi Calm Calm - N/A   Clear
7:35 AM 31.1 °F - 30.0 °F 96% 30.42 in 7.0 mi Calm Calm - N/A   Clear
7:55 AM 32.9 °F - 31.1 °F 93% 30.43 in 7.0 mi Calm Calm - N/A   Clear
8:15 AM 35.8 °F - 33.6 °F 92% 30.44 in 7.0 mi Calm Calm - N/A   Clear
8:35 AM 39.4 °F - 35.8 °F 87% 30.45 in 10.0 mi Calm Calm - N/A   Clear
8:55 AM 42.6 °F 40.9 °F 36.9 °F 80% 30.45 in 10.0 mi SSE 3.5 mph - N/A   Clear
9:15 AM 45.1 °F 43.7 °F 37.2 °F 74% 30.46 in 10.0 mi South 3.5 mph - N/A   Clear
9:35 AM 46.9 °F - 36.9 °F 68% 30.47 in 10.0 mi SSW 3.5 mph - N/A   Clear
9:55 AM 48.7 °F - 37.2 °F 64% 30.47 in 10.0 mi South 5.8 mph - N/A   Clear
10:15 AM 50.0 °F - 37.8 °F 63% 30.47 in 10.0 mi SSW 3.5 mph - N/A   Clear
10:35 AM 52.2 °F - 38.5 °F 60% 30.46 in 10.0 mi SE 6.9 mph - N/A   Clear
10:55 AM 53.6 °F - 37.8 °F 55% 30.46 in 10.0 mi SSE 6.9 mph - N/A   Clear
11:15 AM 54.5 °F - 37.9 °F 54% 30.45 in 10.0 mi South 3.5 mph - N/A   Clear
11:35 AM 55.9 °F - 37.8 °F 51% 30.44 in 10.0 mi SE 5.8 mph - N/A   Clear
11:55 AM 57.4 °F - 36.9 °F 46% 30.42 in 10.0 mi ESE 4.6 mph - N/A   Clear
12:15 PM 58.6 °F - 36.0 °F 43% 30.41 in 10.0 mi East 5.8 mph - N/A   Clear
12:35 PM 59.0 °F - 35.6 °F 42% 30.39 in 10.0 mi East 9.2 mph - N/A   Clear
12:55 PM 59.9 °F - 35.1 °F 39% 30.38 in 10.0 mi East 4.6 mph - N/A   Clear
1:15 PM 60.3 °F - 35.1 °F 39% 30.37 in 10.0 mi South 4.6 mph - N/A   Clear
1:35 PM 60.8 °F - 34.5 °F 37% 30.36 in 10.0 mi South 8.1 mph - N/A   Clear
1:55 PM 61.5 °F - 34.0 °F 36% 30.34 in 10.0 mi SSW 3.5 mph - N/A   Clear
2:15 PM 62.1 °F - 33.6 °F 34% 30.33 in 10.0 mi ESE 4.6 mph - N/A   Clear
2:35 PM 62.1 °F - 33.4 °F 34% 30.32 in 10.0 mi SSE 3.5 mph - N/A   Clear
2:55 PM 62.6 °F - 34.2 °F 35% 30.31 in 10.0 mi ESE 6.9 mph - N/A   Clear
3:15 PM 62.8 °F - 34.2 °F 34% 30.31 in 10.0 mi ESE 5.8 mph - N/A   Clear
3:35 PM 63.0 °F - 34.3 °F 34% 30.30 in 10.0 mi SE 5.8 mph - N/A   Clear
3:55 PM 63.0 °F - 34.0 °F 34% 30.30 in 10.0 mi ESE 8.1 mph - N/A   Clear
4:15 PM 62.6 °F - 32.4 °F 32% 30.30 in 10.0 mi East 6.9 mph - N/A   Clear
4:35 PM 61.9 °F - 32.4 °F 33% 30.30 in 10.0 mi East 4.6 mph - N/A   Clear
4:55 PM 60.6 °F - 32.5 °F 35% 30.30 in 10.0 mi ESE 5.8 mph - N/A   Clear
5:15 PM 58.6 °F - 32.5 °F 37% 30.29 in 10.0 mi ESE 4.6 mph - N/A   Clear
5:35 PM 56.7 °F - 32.4 °F 40% 30.29 in 10.0 mi SE 3.5 mph - N/A   Clear
5:55 PM 54.9 °F - 32.5 °F 43% 30.29 in 10.0 mi SE 3.5 mph - N/A   Clear
6:15 PM 54.3 °F - 32.4 °F 43% 30.29 in 10.0 mi Calm Calm - N/A   Clear
6:35 PM 53.2 °F - 32.5 °F 45% 30.30 in 10.0 mi Calm Calm - N/A   Clear
6:55 PM 50.4 °F - 32.9 °F 51% 30.31 in 10.0 mi Calm Calm - N/A   Clear
7:15 PM 48.6 °F - 32.9 °F 55% 30.31 in 10.0 mi Calm Calm - N/A   Clear
7:35 PM 46.2 °F - 32.9 °F 60% 30.32 in 10.0 mi Calm Calm - N/A   Clear
7:55 PM 44.8 °F - 32.9 °F 63% 30.32 in 10.0 mi Calm Calm - N/A   Clear
8:15 PM 43.5 °F - 32.9 °F 66% 30.32 in 10.0 mi Calm Calm - N/A   Clear
8:35 PM 41.5 °F - 32.9 °F 71% 30.33 in 10.0 mi Calm Calm - N/A   Clear
8:55 PM 40.8 °F - 32.5 °F 72% 30.33 in 10.0 mi Calm Calm - N/A   Clear
9:15 PM 40.8 °F - 32.5 °F 72% 30.32 in 10.0 mi Calm Calm - N/A   Clear
9:35 PM 39.6 °F - 32.7 °F 76% 30.32 in 10.0 mi Calm Calm - N/A   Clear
9:55 PM 39.6 °F - 32.7 °F 76% 30.32 in 10.0 mi Calm Calm - N/A   Clear
10:15 PM 38.8 °F - 32.5 °F 78% 30.32 in 10.0 mi Calm Calm - N/A   Clear
10:35 PM 37.6 °F - 32.5 °F 82% 30.31 in 10.0 mi Calm Calm - N/A   Clear
10:55 PM 37.8 °F - 32.5 °F 81% 30.30 in 10.0 mi Calm Calm - N/A   Clear
11:15 PM 38.5 °F - 32.7 °F 80% 30.30 in 10.0 mi Calm Calm - N/A   Clear
11:35 PM 39.9 °F 37.8 °F 33.3 °F 77% 30.30 in 10.0 mi South 3.5 mph - N/A   Clear
11:55 PM 39.6 °F - 32.7 °F 76% 30.29 in 10.0 mi Calm Calm - N/A   Clear